Time,TemperatureF,DewpointF,PressureIn,WindDirection,WindDirectionDegrees,WindSpeedMPH,WindSpeedGustMPH,Humidity,HourlyPrecipIn,Conditions,Clouds,dailyrainin,SoftwareType,DateUTC
2013-06-06 00:01:00,69.1,62.3,28.69,East,90,0.0,0.0,79,0.00,CLR,SKC,0.00,WeatherDisplay:10.37,2013-06-06 04:01:00,
2013-06-06 00:02:00,69.1,62.3,28.69,East,90,0.0,0.0,79,0.00,CLR,SKC,0.00,WeatherDisplay:10.37,2013-06-06 04:02:00,
2013-06-06 00:03:00,69.1,62.3,28.69,East,90,0.0,0.0,79,0.00,CLR,SKC,0.00,WeatherDisplay:10.37,2013-06-06 04:03:00,
2013-06-06 00:07:00,69.3,62.5,28.69,East,90,0.0,0.0,79,0.00,CLR,SKC,0.00,WeatherDisplay:10.37,2013-06-06 04:07:00,
2013-06-06 00:12:00,69.3,62.5,28.69,East,90,0.0,0.0,79,0.00,CLR,SKC,0.00,WeatherDisplay:10.37,2013-06-06 04:12:00,
2013-06-06 00:17:00,69.3,62.5,28.70,NE,45,0.0,0.0,79,0.00,CLR,SKC,0.00,WeatherDisplay:10.37,2013-06-06 04:17:00,
2013-06-06 00:22:00,69.3,62.5,28.70,NE,45,0.0,0.0,79,0.00,CLR,SKC,0.00,WeatherDisplay:10.37,2013-06-06 04:22:00,
2013-06-06 00:27:00,69.3,62.5,28.70,NE,45,0.0,0.0,79,0.00,CLR,SKC,0.00,WeatherDisplay:10.37,2013-06-06 04:27:00,
2013-06-06 00:32:00,69.1,62.6,28.70,ENE,68,0.0,0.0,80,0.00,CLR,SKC,0.00,WeatherDisplay:10.37,2013-06-06 04:32:00,
2013-06-06 00:37:00,69.1,62.6,28.69,East,90,0.0,0.0,80,0.00,CLR,SKC,0.00,WeatherDisplay:10.37,2013-06-06 04:37:00,
2013-06-06 00:42:00,69.1,62.6,28.70,NE,45,5.8,0.0,80,0.00,CLR,SKC,0.00,WeatherDisplay:10.37,2013-06-06 04:42:00,
2013-06-06 00:47:00,69.1,62.6,28.69,East,90,5.8,5.8,80,0.00,CLR,SKC,0.00,WeatherDisplay:10.37,2013-06-06 04:47:00,
2013-06-06 00:52:00,69.3,63.2,28.69,East,90,5.8,5.8,81,0.00,CLR,SKC,0.00,WeatherDisplay:10.37,2013-06-06 04:52:00,
2013-06-06 00:57:00,69.3,62.8,28.69,East,90,5.8,5.8,80,0.00,CLR,SKC,0.00,WeatherDisplay:10.37,2013-06-06 04:57:00,
2013-06-06 01:02:00,69.3,62.8,28.68,ESE,112,5.8,5.8,80,0.00,CLR,SKC,0.00,WeatherDisplay:10.37,2013-06-06 05:02:00,
2013-06-06 01:07:00,69.3,62.8,28.69,ESE,112,5.8,5.8,80,0.00,CLR,SKC,0.00,WeatherDisplay:10.37,2013-06-06 05:07:00,
2013-06-06 01:12:00,69.4,63.0,28.68,East,90,4.6,4.6,80,0.00,CLR,SKC,0.00,WeatherDisplay:10.37,2013-06-06 05:12:00,
2013-06-06 01:17:00,69.4,63.0,28.68,East,90,10.4,10.4,80,0.00,CLR,SKC,0.00,WeatherDisplay:10.37,2013-06-06 05:17:00,
2013-06-06 01:22:00,69.4,63.0,28.68,NE,45,5.8,5.8,80,0.00,CLR,SKC,0.00,WeatherDisplay:10.37,2013-06-06 05:22:00,
2013-06-06 01:27:00,69.4,63.0,28.68,NE,45,8.3,8.3,80,0.00,CLR,SKC,0.00,WeatherDisplay:10.37,2013-06-06 05:27:00,
2013-06-06 01:32:00,69.6,63.2,28.68,East,90,8.1,8.1,80,0.00,CLR,SKC,0.00,WeatherDisplay:10.37,2013-06-06 05:32:00,
2013-06-06 01:37:00,69.6,63.2,28.68,East,90,5.8,5.8,80,0.00,CLR,SKC,0.00,WeatherDisplay:10.37,2013-06-06 05:37:00,
2013-06-06 01:42:00,69.6,63.2,28.68,East,90,4.6,4.6,80,0.00,CLR,SKC,0.00,WeatherDisplay:10.37,2013-06-06 05:42:00,
2013-06-06 01:47:00,69.6,63.2,28.68,East,90,3.5,0.0,80,0.00,CLR,SKC,0.00,WeatherDisplay:10.37,2013-06-06 05:47:00,
2013-06-06 01:52:00,69.6,63.2,28.68,NE,45,0.0,0.0,80,0.00,CLR,SKC,0.00,WeatherDisplay:10.37,2013-06-06 05:52:00,
2013-06-06 01:57:00,69.6,63.2,28.69,East,90,8.1,8.1,80,0.00,CLR,SKC,0.00,WeatherDisplay:10.37,2013-06-06 05:57:00,
2013-06-06 02:02:00,69.8,63.3,28.68,East,90,0.0,0.0,80,0.00,CLR,SKC,0.00,WeatherDisplay:10.37,2013-06-06 06:02:00,
2013-06-06 02:07:00,69.6,63.2,28.68,SE,135,4.6,4.6,80,0.00,CLR,SKC,0.00,WeatherDisplay:10.37,2013-06-06 06:07:00,
2013-06-06 02:12:00,69.6,63.2,28.68,SSE,158,9.2,9.2,80,0.00,CLR,SKC,0.00,WeatherDisplay:10.37,2013-06-06 06:12:00,
2013-06-06 02:17:00,69.6,63.2,28.68,East,90,3.5,3.5,80,0.00,CLR,SKC,0.00,WeatherDisplay:10.37,2013-06-06 06:17:00,
2013-06-06 02:22:00,69.6,63.2,28.68,East,90,0.0,0.0,80,0.00,CLR,SKC,0.00,WeatherDisplay:10.37,2013-06-06 06:22:00,
2013-06-06 02:27:00,69.4,63.4,28.68,East,90,0.0,0.0,81,0.00,CLR,SKC,0.00,WeatherDisplay:10.37,2013-06-06 06:27:00,
2013-06-06 02:32:00,69.4,63.4,28.68,East,90,0.0,0.0,81,0.00,CLR,SKC,0.00,WeatherDisplay:10.37,2013-06-06 06:32:00,
2013-06-06 02:37:00,69.3,63.2,28.68,East,90,0.0,0.0,81,0.00,CLR,SKC,0.00,WeatherDisplay:10.37,2013-06-06 06:37:00,
2013-06-06 02:42:00,69.1,63.4,28.68,East,90,0.0,0.0,82,0.00,CLR,SKC,0.00,WeatherDisplay:10.37,2013-06-06 06:42:00,
2013-06-06 02:47:00,69.1,63.4,28.68,East,90,0.0,0.0,82,0.00,CLR,SKC,0.00,WeatherDisplay:10.37,2013-06-06 06:47:00,
2013-06-06 02:52:00,68.9,63.2,28.68,East,90,0.0,0.0,82,0.00,CLR,SKC,0.00,WeatherDisplay:10.37,2013-06-06 06:52:00,
2013-06-06 02:57:00,68.9,63.2,28.68,SE,135,0.0,0.0,82,0.00,CLR,SKC,0.00,WeatherDisplay:10.37,2013-06-06 06:57:00,
2013-06-06 03:02:00,68.9,63.2,28.68,East,90,0.0,0.0,82,0.00,CLR,SKC,0.00,WeatherDisplay:10.37,2013-06-06 07:02:00,
2013-06-06 03:07:00,68.9,63.2,28.68,East,90,0.0,0.0,82,0.00,CLR,SKC,0.00,WeatherDisplay:10.37,2013-06-06 07:07:00,
2013-06-06 03:12:00,68.7,63.0,28.68,East,90,0.0,0.0,82,0.00,CLR,SKC,0.00,WeatherDisplay:10.37,2013-06-06 07:12:00,
2013-06-06 03:17:00,68.7,63.3,28.68,East,90,0.0,0.0,83,0.00,CLR,SKC,0.00,WeatherDisplay:10.37,2013-06-06 07:17:00,
2013-06-06 03:22:00,68.5,63.2,28.68,NE,45,0.0,0.0,83,0.00,CLR,SKC,0.00,WeatherDisplay:10.37,2013-06-06 07:22:00,
2013-06-06 03:27:00,68.4,63.0,28.67,East,90,0.0,0.0,83,0.00,CLR,SKC,0.00,WeatherDisplay:10.37,2013-06-06 07:27:00,
2013-06-06 03:32:00,68.4,63.3,28.68,SE,135,0.0,0.0,84,0.00,CLR,SKC,0.00,WeatherDisplay:10.37,2013-06-06 07:32:00,
2013-06-06 03:37:00,68.4,63.7,28.67,SE,135,0.0,0.0,85,0.00,CLR,SKC,0.00,WeatherDisplay:10.37,2013-06-06 07:37:00,
2013-06-06 03:42:00,68.2,63.5,28.67,SE,135,0.0,0.0,85,0.00,CLR,SKC,0.00,WeatherDisplay:10.37,2013-06-06 07:42:00,
2013-06-06 03:47:00,68.2,63.8,28.67,South,180,0.0,0.0,86,0.00,CLR,SKC,0.00,WeatherDisplay:10.37,2013-06-06 07:47:00,
2013-06-06 03:52:00,67.8,63.8,28.67,SE,135,0.0,0.0,87,0.00,CLR,SKC,0.00,WeatherDisplay:10.37,2013-06-06 07:52:00,
2013-06-06 03:57:00,67.6,64.3,28.67,SE,135,0.0,0.0,89,0.00,CLR,SKC,0.00,WeatherDisplay:10.37,2013-06-06 07:57:00,
2013-06-06 04:02:00,67.5,64.1,28.67,East,90,0.0,0.0,89,0.00,CLR,SKC,0.00,WeatherDisplay:10.37,2013-06-06 08:02:00,
2013-06-06 04:07:00,67.5,64.1,28.67,East,90,0.0,0.0,89,0.00,CLR,SKC,0.00,WeatherDisplay:10.37,2013-06-06 08:07:00,
2013-06-06 04:12:00,66.7,64.3,28.67,East,90,0.0,0.0,92,0.00,CLR,SKC,0.00,WeatherDisplay:10.37,2013-06-06 08:12:00,
2013-06-06 04:17:00,66.6,64.5,28.67,East,90,0.0,0.0,93,0.00,CLR,SKC,0.00,WeatherDisplay:10.37,2013-06-06 08:17:00,
2013-06-06 04:22:00,66.6,64.5,28.66,NE,45,0.0,0.0,93,0.00,CLR,SKC,0.00,WeatherDisplay:10.37,2013-06-06 08:22:00,
2013-06-06 04:27:00,66.4,64.6,28.66,East,90,0.0,0.0,94,0.00,CLR,SKC,0.00,WeatherDisplay:10.37,2013-06-06 08:27:00,
2013-06-06 04:32:00,66.2,64.7,28.66,NE,45,0.0,0.0,95,0.00,CLR,SKC,0.00,WeatherDisplay:10.37,2013-06-06 08:32:00,
2013-06-06 04:37:00,66.2,65.0,28.66,East,90,0.0,0.0,96,0.00,CLR,SKC,0.00,WeatherDisplay:10.37,2013-06-06 08:37:00,
2013-06-06 04:42:00,66.0,65.1,28.66,East,90,0.0,0.0,97,0.00,CLR,SKC,0.00,WeatherDisplay:10.37,2013-06-06 08:42:00,
2013-06-06 04:47:00,65.8,65.0,28.66,East,90,0.0,0.0,97,0.00,CLR,SKC,0.00,WeatherDisplay:10.37,2013-06-06 08:47:00,
2013-06-06 04:52:00,65.8,65.3,28.66,East,90,0.0,0.0,98,0.00,CLR,SKC,0.00,WeatherDisplay:10.37,2013-06-06 08:52:00,
2013-06-06 04:57:00,65.8,65.3,28.67,NE,45,0.0,0.0,98,0.00,CLR,SKC,0.00,WeatherDisplay:10.37,2013-06-06 08:57:00,
2013-06-06 05:02:00,65.8,65.3,28.65,NE,45,0.0,0.0,98,0.00,CLR,SKC,0.00,WeatherDisplay:10.37,2013-06-06 09:02:00,
2013-06-06 05:07:00,65.7,65.1,28.65,NE,45,0.0,0.0,98,0.00,CLR,SKC,0.00,WeatherDisplay:10.37,2013-06-06 09:07:00,
2013-06-06 05:12:00,65.7,65.1,28.66,NE,45,0.0,0.0,98,0.00,CLR,SKC,0.00,WeatherDisplay:10.37,2013-06-06 09:12:00,
2013-06-06 05:17:00,65.7,65.7,28.66,NE,45,0.0,0.0,100,0.00,CLR,SKC,0.00,WeatherDisplay:10.37,2013-06-06 09:17:00,
2013-06-06 05:22:00,65.5,65.5,28.65,East,90,0.0,0.0,100,0.00,CLR,SKC,0.00,WeatherDisplay:10.37,2013-06-06 09:22:00,
2013-06-06 05:27:00,65.5,65.5,28.66,East,90,0.0,0.0,100,0.00,CLR,SKC,0.00,WeatherDisplay:10.37,2013-06-06 09:27:00,
2013-06-06 05:32:00,65.5,65.5,28.65,NE,45,0.0,0.0,100,0.00,CLR,SKC,0.00,WeatherDisplay:10.37,2013-06-06 09:32:00,
2013-06-06 05:37:00,65.3,65.3,28.66,NE,45,0.0,0.0,100,0.01,RA,SKC,0.01,WeatherDisplay:10.37,2013-06-06 09:37:00,
2013-06-06 05:42:00,65.5,65.5,28.65,NE,45,0.0,0.0,100,0.01,RA,SKC,0.01,WeatherDisplay:10.37,2013-06-06 09:42:00,
2013-06-06 05:47:00,65.3,65.3,28.65,NE,45,0.0,0.0,100,0.01,CLR,SKC,0.01,WeatherDisplay:10.37,2013-06-06 09:47:00,
2013-06-06 05:52:00,65.3,65.3,28.65,East,90,0.0,0.0,100,0.01,CLR,SKC,0.01,WeatherDisplay:10.37,2013-06-06 09:52:00,
2013-06-06 05:57:00,65.1,65.1,28.65,East,90,0.0,0.0,100,0.01,CLR,SKC,0.01,WeatherDisplay:10.37,2013-06-06 09:57:00,
2013-06-06 06:02:00,65.1,65.1,28.66,NE,45,0.0,0.0,100,0.01,CLR,SKC,0.01,WeatherDisplay:10.37,2013-06-06 10:02:00,
2013-06-06 06:07:00,65.1,65.1,28.66,NE,45,0.0,0.0,100,0.01,CLR,SKC,0.01,WeatherDisplay:10.37,2013-06-06 10:07:00,
2013-06-06 06:12:00,64.9,64.9,28.65,NE,45,0.0,0.0,100,0.01,CLR,SKC,0.01,WeatherDisplay:10.37,2013-06-06 10:12:00,
2013-06-06 06:17:00,64.9,64.9,28.65,NE,45,0.0,0.0,100,0.01,CLR,SKC,0.01,WeatherDisplay:10.37,2013-06-06 10:17:00,
2013-06-06 06:22:00,64.9,64.9,28.65,NE,45,0.0,0.0,100,0.01,CLR,SKC,0.01,WeatherDisplay:10.37,2013-06-06 10:22:00,
2013-06-06 06:27:00,64.9,64.9,28.65,NE,45,0.0,0.0,100,0.01,CLR,SKC,0.01,WeatherDisplay:10.37,2013-06-06 10:27:00,
2013-06-06 06:32:00,65.1,65.1,28.65,East,90,0.0,0.0,100,0.01,CLR,SKC,0.01,WeatherDisplay:10.37,2013-06-06 10:32:00,
2013-06-06 06:37:00,65.1,65.1,28.65,East,90,0.0,0.0,100,0.00,CLR,SKC,0.01,WeatherDisplay:10.37,2013-06-06 10:37:00,
2013-06-06 06:42:00,65.1,65.1,28.65,NE,45,0.0,0.0,100,0.00,CLR,SKC,0.01,WeatherDisplay:10.37,2013-06-06 10:42:00,
2013-06-06 06:47:00,64.9,64.9,28.66,East,90,0.0,0.0,100,0.00,CLR,SKC,0.01,WeatherDisplay:10.37,2013-06-06 10:47:00,
2013-06-06 06:52:00,64.9,64.9,28.65,NE,45,0.0,0.0,100,0.00,CLR,SKC,0.01,WeatherDisplay:10.37,2013-06-06 10:52:00,
2013-06-06 06:57:00,65.1,65.1,28.64,East,90,0.0,0.0,100,0.00,CLR,SKC,0.01,WeatherDisplay:10.37,2013-06-06 10:57:00,
2013-06-06 07:02:00,65.1,65.1,28.65,East,90,0.0,0.0,100,0.00,CLR,SKC,0.01,WeatherDisplay:10.37,2013-06-06 11:02:00,
2013-06-06 07:07:00,65.1,65.1,28.65,East,90,0.0,0.0,100,0.00,CLR,SKC,0.01,WeatherDisplay:10.37,2013-06-06 11:07:00,
2013-06-06 07:12:00,65.3,65.3,28.64,NE,45,3.5,0.0,100,0.00,CLR,SKC,0.01,WeatherDisplay:10.37,2013-06-06 11:12:00,
2013-06-06 07:17:00,65.3,65.3,28.65,NE,45,2.3,2.3,100,0.00,CLR,SKC,0.01,WeatherDisplay:10.37,2013-06-06 11:17:00,
2013-06-06 07:22:00,65.3,65.3,28.64,East,90,4.6,4.6,100,0.00,CLR,SKC,0.01,WeatherDisplay:10.37,2013-06-06 11:22:00,
2013-06-06 07:27:00,65.3,65.3,28.65,East,90,3.5,3.5,100,0.00,CLR,SKC,0.01,WeatherDisplay:10.37,2013-06-06 11:27:00,
2013-06-06 07:32:00,65.3,65.3,28.64,East,90,3.5,3.5,100,0.00,CLR,SKC,0.01,WeatherDisplay:10.37,2013-06-06 11:32:00,
2013-06-06 07:37:00,65.5,65.2,28.64,NE,45,3.5,3.5,99,0.00,CLR,SKC,0.01,WeatherDisplay:10.37,2013-06-06 11:37:00,
2013-06-06 07:42:00,65.3,64.4,28.64,East,90,4.6,0.0,97,0.00,CLR,SKC,0.01,WeatherDisplay:10.37,2013-06-06 11:42:00,
2013-06-06 07:47:00,65.5,64.3,28.64,East,90,5.8,5.8,96,0.00,CLR,SKC,0.01,WeatherDisplay:10.37,2013-06-06 11:47:00,
2013-06-06 07:52:00,65.5,64.0,28.64,East,90,6.9,6.9,95,0.00,CLR,SKC,0.01,WeatherDisplay:10.37,2013-06-06 11:52:00,
2013-06-06 07:57:00,65.5,63.7,28.64,SE,135,5.8,5.8,94,0.00,CLR,SKC,0.01,WeatherDisplay:10.37,2013-06-06 11:57:00,
2013-06-06 08:02:00,65.5,63.7,28.64,East,90,3.5,3.5,94,0.00,CLR,SKC,0.01,WeatherDisplay:10.37,2013-06-06 12:02:00,
2013-06-06 08:08:00,65.1,64.0,28.64,East,90,5.8,5.8,96,0.00,CLR,SKC,0.01,WeatherDisplay:10.37,2013-06-06 12:08:00,
2013-06-06 08:13:00,64.8,64.5,28.64,SE,135,10.4,10.4,99,0.00,CLR,SKC,0.02,WeatherDisplay:10.37,2013-06-06 12:13:00,
2013-06-06 08:18:00,64.4,64.4,28.64,SE,135,3.5,3.5,100,0.01,RA,SKC,0.04,WeatherDisplay:10.37,2013-06-06 12:18:00,
2013-06-06 08:23:00,64.2,64.2,28.64,East,90,8.1,8.1,100,0.04,RA,SKC,0.05,WeatherDisplay:10.37,2013-06-06 12:23:00,
2013-06-06 08:28:00,63.9,63.9,28.64,ESE,112,4.6,4.6,100,0.04,RA,SKC,0.05,WeatherDisplay:10.37,2013-06-06 12:28:00,
2013-06-06 08:33:00,63.9,63.9,28.63,NE,45,4.6,4.6,100,0.04,CLR,SKC,0.05,WeatherDisplay:10.37,2013-06-06 12:33:00,
2013-06-06 08:38:00,63.7,63.7,28.63,NE,45,5.8,5.8,100,0.04,CLR,SKC,0.05,WeatherDisplay:10.37,2013-06-06 12:38:00,
2013-06-06 08:43:00,63.7,63.7,28.63,East,90,4.6,4.6,100,0.06,RA,SKC,0.07,WeatherDisplay:10.37,2013-06-06 12:43:00,
2013-06-06 08:48:00,63.5,63.5,28.63,NE,45,8.1,8.1,100,0.06,RA,SKC,0.07,WeatherDisplay:10.37,2013-06-06 12:48:00,
2013-06-06 08:53:00,63.5,63.5,28.63,NE,45,9.2,9.2,100,0.06,CLR,SKC,0.07,WeatherDisplay:10.37,2013-06-06 12:53:00,
2013-06-06 08:58:00,63.3,63.3,28.64,East,90,5.8,5.8,100,0.07,RA,SKC,0.08,WeatherDisplay:10.37,2013-06-06 12:58:00,
2013-06-06 09:03:00,63.3,63.3,28.63,East,90,5.8,5.8,100,0.08,RA,SKC,0.09,WeatherDisplay:10.37,2013-06-06 13:03:00,
2013-06-06 09:08:00,63.3,63.3,28.63,East,90,6.9,6.9,100,0.09,RA,SKC,0.11,WeatherDisplay:10.37,2013-06-06 13:08:00,
2013-06-06 09:13:00,63.1,63.1,28.63,East,90,5.8,5.8,100,0.09,RA,SKC,0.12,WeatherDisplay:10.37,2013-06-06 13:13:00,
2013-06-06 09:18:00,63.1,63.1,28.63,East,90,3.5,3.5,100,0.11,RA,SKC,0.13,WeatherDisplay:10.37,2013-06-06 13:18:00,
2013-06-06 09:23:00,63.3,63.3,28.63,NE,45,5.8,5.8,100,0.09,RA,SKC,0.15,WeatherDisplay:10.37,2013-06-06 13:23:00,
2013-06-06 09:28:00,63.1,63.1,28.63,East,90,5.8,5.8,100,0.12,RA,SKC,0.18,WeatherDisplay:10.37,2013-06-06 13:28:00,
2013-06-06 09:33:00,63.1,63.1,28.63,NE,45,10.4,10.4,100,0.13,RA,SKC,0.18,WeatherDisplay:10.37,2013-06-06 13:33:00,
2013-06-06 09:38:00,63.1,63.1,28.62,East,90,8.1,8.1,100,0.11,,SKC,0.18,WeatherDisplay:10.37,2013-06-06 13:38:00,
2013-06-06 09:43:00,63.3,63.3,28.62,East,90,5.8,5.8,100,0.13,RA,SKC,0.20,WeatherDisplay:10.37,2013-06-06 13:43:00,
2013-06-06 09:48:00,63.1,63.1,28.62,NE,45,8.1,8.1,100,0.14,RA,SKC,0.21,WeatherDisplay:10.37,2013-06-06 13:48:00,
2013-06-06 09:53:00,63.1,63.1,28.62,NE,45,9.2,9.2,100,0.15,RA,SKC,0.22,WeatherDisplay:10.37,2013-06-06 13:53:00,
2013-06-06 09:58:00,63.1,63.1,28.61,NE,45,5.8,5.8,100,0.14,RA,SKC,0.22,WeatherDisplay:10.37,2013-06-06 13:58:00,
2013-06-06 10:03:00,63.3,63.3,28.61,ENE,68,4.6,4.6,100,0.13,CLR,SKC,0.22,WeatherDisplay:10.37,2013-06-06 14:03:00,
2013-06-06 10:08:00,63.1,63.1,28.61,NE,45,3.5,3.5,100,0.12,CLR,SKC,0.24,WeatherDisplay:10.37,2013-06-06 14:08:00,
2013-06-06 10:13:00,63.3,63.3,28.61,East,90,0.0,0.0,100,0.12,RA,SKC,0.24,WeatherDisplay:10.37,2013-06-06 14:13:00,
2013-06-06 10:18:00,63.1,63.1,28.62,East,90,3.5,3.5,100,0.11,,SKC,0.24,WeatherDisplay:10.37,2013-06-06 14:18:00,
2013-06-06 10:23:00,63.3,63.3,28.62,East,90,2.3,0.0,100,0.11,RA,SKC,0.25,WeatherDisplay:10.37,2013-06-06 14:23:00,
2013-06-06 10:28:00,63.3,63.3,28.61,East,90,6.9,6.9,100,0.08,RA,SKC,0.25,WeatherDisplay:10.37,2013-06-06 14:28:00,
2013-06-06 10:33:00,63.3,63.3,28.62,East,90,6.9,6.9,100,0.08,RA,SKC,0.26,WeatherDisplay:10.37,2013-06-06 14:33:00,
2013-06-06 10:38:00,63.1,63.1,28.62,East,90,4.6,4.6,100,0.09,RA,SKC,0.27,WeatherDisplay:10.37,2013-06-06 14:38:00,
2013-06-06 10:43:00,63.1,63.1,28.62,NE,45,3.5,3.5,100,0.08,RA,SKC,0.28,WeatherDisplay:10.37,2013-06-06 14:43:00,
2013-06-06 10:48:00,63.1,63.1,28.62,East,90,3.5,3.5,100,0.08,RA,SKC,0.30,WeatherDisplay:10.37,2013-06-06 14:48:00,
2013-06-06 10:53:00,63.3,63.3,28.62,SE,135,3.5,3.5,100,0.09,RA,SKC,0.32,WeatherDisplay:10.37,2013-06-06 14:53:00,
2013-06-06 10:58:00,63.3,63.3,28.62,East,90,3.5,0.0,100,0.09,RA,SKC,0.32,WeatherDisplay:10.37,2013-06-06 14:58:00,
2013-06-06 11:03:00,63.3,63.3,28.62,East,90,1.2,0.0,100,0.11,RA,SKC,0.33,WeatherDisplay:10.37,2013-06-06 15:03:00,
2013-06-06 11:08:00,63.5,63.5,28.62,NE,45,3.5,3.5,100,0.12,RA,SKC,0.34,WeatherDisplay:10.37,2013-06-06 15:08:00,
2013-06-06 11:13:00,63.3,63.3,28.62,NE,45,6.9,6.9,100,0.12,RA,SKC,0.35,WeatherDisplay:10.37,2013-06-06 15:13:00,
2013-06-06 11:18:00,63.3,63.3,28.62,East,90,5.8,5.8,100,0.13,RA,SKC,0.37,WeatherDisplay:10.37,2013-06-06 15:18:00,
2013-06-06 11:23:00,63.3,63.3,28.62,East,90,5.8,5.8,100,0.17,RA,SKC,0.41,WeatherDisplay:10.37,2013-06-06 15:23:00,
2013-06-06 11:28:00,63.3,63.3,28.62,ENE,68,4.6,4.6,100,0.20,RA,SKC,0.45,WeatherDisplay:10.37,2013-06-06 15:28:00,
2013-06-06 11:33:00,63.3,63.3,28.62,NE,45,5.8,5.8,100,0.20,RA,SKC,0.46,WeatherDisplay:10.37,2013-06-06 15:33:00,
2013-06-06 11:38:00,63.3,63.3,28.62,East,90,4.6,4.6,100,0.21,RA,SKC,0.48,WeatherDisplay:10.37,2013-06-06 15:38:00,
2013-06-06 11:43:00,63.3,63.3,28.61,NE,45,5.8,5.8,100,0.21,RA,SKC,0.50,WeatherDisplay:10.37,2013-06-06 15:43:00,
2013-06-06 11:48:00,63.3,63.3,28.61,East,90,5.8,5.8,100,0.20,RA,SKC,0.50,WeatherDisplay:10.37,2013-06-06 15:48:00,
2013-06-06 11:53:00,63.5,63.5,28.61,NE,45,5.8,5.8,100,0.19,RA,SKC,0.52,WeatherDisplay:10.37,2013-06-06 15:53:00,
2013-06-06 11:58:00,63.3,63.3,28.61,East,90,8.1,8.1,100,0.21,RA,SKC,0.54,WeatherDisplay:10.37,2013-06-06 15:58:00,
2013-06-06 12:03:00,63.3,63.3,28.61,East,90,8.1,8.1,100,0.22,RA,SKC,0.56,WeatherDisplay:10.37,2013-06-06 16:03:00,
2013-06-06 12:08:00,63.3,63.3,28.61,East,90,6.9,6.9,100,0.22,RA,SKC,0.57,WeatherDisplay:10.37,2013-06-06 16:08:00,
2013-06-06 12:13:00,63.3,63.3,28.61,SE,135,6.9,6.9,100,0.24,RA,SKC,0.59,WeatherDisplay:10.37,2013-06-06 16:13:00,
2013-06-06 12:18:00,63.5,63.5,28.60,NE,45,5.8,5.8,100,0.24,RA,SKC,0.60,WeatherDisplay:10.37,2013-06-06 16:18:00,
2013-06-06 12:23:00,63.5,63.5,28.60,NE,45,4.6,4.6,100,0.19,RA,SKC,0.60,WeatherDisplay:10.37,2013-06-06 16:23:00,
2013-06-06 12:28:00,63.5,63.5,28.60,NE,45,3.5,3.5,100,0.18,RA,SKC,0.61,WeatherDisplay:10.37,2013-06-06 16:28:00,
2013-06-06 12:33:00,63.5,63.5,28.60,SE,135,2.3,2.3,100,0.15,RA,SKC,0.61,WeatherDisplay:10.37,2013-06-06 16:33:00,
2013-06-06 12:38:00,63.7,63.7,28.60,NE,45,4.6,4.6,100,0.13,CLR,SKC,0.61,WeatherDisplay:10.37,2013-06-06 16:38:00,
2013-06-06 12:43:00,63.9,63.9,28.60,SE,135,2.3,2.3,100,0.12,CLR,SKC,0.61,WeatherDisplay:10.37,2013-06-06 16:43:00,
2013-06-06 12:48:00,63.7,63.7,28.60,East,90,5.8,5.8,100,0.12,CLR,SKC,0.61,WeatherDisplay:10.37,2013-06-06 16:48:00,
2013-06-06 12:53:00,63.7,63.7,28.60,ENE,68,5.8,5.8,100,0.11,RA,SKC,0.63,WeatherDisplay:10.37,2013-06-06 16:53:00,
2013-06-06 12:58:00,63.9,63.9,28.59,East,90,4.6,4.6,100,0.08,RA,SKC,0.63,WeatherDisplay:10.37,2013-06-06 16:58:00,
2013-06-06 13:03:00,63.9,63.9,28.59,East,90,5.8,5.8,100,0.07,CLR,SKC,0.63,WeatherDisplay:10.37,2013-06-06 17:03:00,
2013-06-06 13:08:00,64.0,64.0,28.59,East,90,3.5,3.5,100,0.06,CLR,SKC,0.63,WeatherDisplay:10.37,2013-06-06 17:08:00,
2013-06-06 13:13:00,64.0,64.0,28.59,East,90,5.8,5.8,100,0.04,CLR,SKC,0.63,WeatherDisplay:10.37,2013-06-06 17:13:00,
2013-06-06 13:18:00,63.9,63.9,28.59,East,90,8.1,8.1,100,0.02,CLR,SKC,0.63,WeatherDisplay:10.37,2013-06-06 17:18:00,
2013-06-06 13:23:00,63.9,63.9,28.59,North,0,4.6,4.6,100,0.02,CLR,SKC,0.63,WeatherDisplay:10.37,2013-06-06 17:23:00,
2013-06-06 13:28:00,63.9,63.9,28.59,East,90,5.8,5.8,100,0.01,CLR,SKC,0.63,WeatherDisplay:10.37,2013-06-06 17:28:00,
2013-06-06 13:33:00,63.9,63.9,28.59,NE,45,5.8,5.8,100,0.01,CLR,SKC,0.63,WeatherDisplay:10.37,2013-06-06 17:33:00,
2013-06-06 13:38:00,63.9,63.9,28.58,NE,45,5.8,5.8,100,0.01,CLR,SKC,0.63,WeatherDisplay:10.37,2013-06-06 17:38:00,
2013-06-06 13:43:00,63.9,63.9,28.58,East,90,5.8,5.8,100,0.01,CLR,SKC,0.63,WeatherDisplay:10.37,2013-06-06 17:43:00,
2013-06-06 13:48:00,63.9,63.9,28.58,NE,45,4.6,4.6,100,0.01,CLR,SKC,0.63,WeatherDisplay:10.37,2013-06-06 17:48:00,
2013-06-06 13:53:00,63.9,63.9,28.58,East,90,0.0,0.0,100,0.00,CLR,SKC,0.63,WeatherDisplay:10.37,2013-06-06 17:53:00,
2013-06-06 13:58:00,64.0,64.0,28.58,NE,45,0.0,0.0,100,0.01,RA,SKC,0.64,WeatherDisplay:10.37,2013-06-06 17:58:00,
2013-06-06 14:03:00,64.0,64.0,28.58,East,90,2.3,2.3,100,0.01,RA,SKC,0.64,WeatherDisplay:10.37,2013-06-06 18:03:00,
2013-06-06 14:08:00,64.0,64.0,28.58,East,90,2.3,2.3,100,0.01,CLR,SKC,0.64,WeatherDisplay:10.37,2013-06-06 18:08:00,
2013-06-06 14:13:00,64.0,64.0,28.58,NE,45,4.6,4.6,100,0.01,CLR,SKC,0.64,WeatherDisplay:10.37,2013-06-06 18:13:00,
2013-06-06 14:18:00,64.2,64.2,28.58,SE,135,5.8,5.8,100,0.01,CLR,SKC,0.64,WeatherDisplay:10.37,2013-06-06 18:18:00,
2013-06-06 14:23:00,64.4,64.4,28.58,NE,45,3.5,3.5,100,0.01,CLR,SKC,0.64,WeatherDisplay:10.37,2013-06-06 18:23:00,
2013-06-06 14:28:00,64.6,64.6,28.57,East,90,3.5,3.5,100,0.01,CLR,SKC,0.64,WeatherDisplay:10.37,2013-06-06 18:28:00,
2013-06-06 14:34:00,64.6,64.6,28.58,East,90,4.6,4.6,100,0.01,CLR,SKC,0.64,WeatherDisplay:10.37,2013-06-06 18:34:00,
2013-06-06 14:39:00,64.8,64.8,28.58,NE,45,5.8,5.8,100,0.01,CLR,SKC,0.64,WeatherDisplay:10.37,2013-06-06 18:39:00,
2013-06-06 14:44:00,64.9,64.9,28.57,East,90,3.5,3.5,100,0.01,CLR,SKC,0.64,WeatherDisplay:10.37,2013-06-06 18:44:00,
2013-06-06 14:49:00,65.1,65.1,28.57,East,90,4.6,4.6,100,0.01,CLR,SKC,0.64,WeatherDisplay:10.37,2013-06-06 18:49:00,
2013-06-06 14:54:00,65.1,62.4,28.57,SE,135,8.1,8.1,91,0.00,CLR,SKC,0.64,WeatherDisplay:10.37,2013-06-06 18:54:00,
2013-06-06 14:59:00,65.1,55.5,28.57,East,90,3.5,3.5,71,0.00,CLR,SKC,0.64,WeatherDisplay:10.37,2013-06-06 18:59:00,
2013-06-06 15:04:00,65.1,45.5,28.57,NE,45,7.6,7.6,49,0.00,CLR,SKC,0.64,WeatherDisplay:10.37,2013-06-06 19:04:00,
2013-06-06 15:09:00,65.1,31.2,28.57,SE,135,5.8,5.8,28,0.00,CLR,SKC,0.64,WeatherDisplay:10.37,2013-06-06 19:09:00,
2013-06-06 15:14:00,65.3,16.4,28.57,SE,135,8.1,8.1,15,0.00,CLR,SKC,0.64,WeatherDisplay:10.37,2013-06-06 19:14:00,
2013-06-06 15:19:00,65.5,16.5,28.57,East,90,5.8,5.8,15,0.00,CLR,SKC,0.64,WeatherDisplay:10.37,2013-06-06 19:19:00,
2013-06-06 15:24:00,66.0,17.0,28.57,ESE,112,5.8,5.8,15,0.00,CLR,SKC,0.64,WeatherDisplay:10.37,2013-06-06 19:24:00,
2013-06-06 15:29:00,66.4,17.3,28.57,East,90,6.9,6.9,15,0.00,CLR,SKC,0.64,WeatherDisplay:10.37,2013-06-06 19:29:00,
2013-06-06 15:34:00,66.6,17.4,28.56,East,90,5.8,5.8,15,0.00,CLR,SKC,0.64,WeatherDisplay:10.37,2013-06-06 19:34:00,
2013-06-06 15:39:00,66.7,17.6,28.56,East,90,3.5,3.5,15,0.00,CLR,SKC,0.64,WeatherDisplay:10.37,2013-06-06 19:39:00,
2013-06-06 15:44:00,66.9,17.7,28.56,East,90,5.8,5.8,15,0.00,CLR,SKC,0.64,WeatherDisplay:10.37,2013-06-06 19:44:00,
2013-06-06 15:49:00,67.3,18.0,28.56,ENE,68,8.1,8.1,15,0.00,CLR,SKC,0.64,WeatherDisplay:10.37,2013-06-06 19:49:00,
2013-06-06 15:54:00,67.5,18.1,28.55,NE,45,8.1,8.1,15,0.00,CLR,SKC,0.64,WeatherDisplay:10.37,2013-06-06 19:54:00,
2013-06-06 15:59:00,67.8,18.4,28.56,East,90,8.1,8.1,15,0.00,CLR,SKC,0.64,WeatherDisplay:10.37,2013-06-06 19:59:00,
2013-06-06 16:04:00,67.6,18.3,28.55,East,90,8.1,8.1,15,0.00,CLR,SKC,0.64,WeatherDisplay:10.37,2013-06-06 20:04:00,
2013-06-06 16:09:00,67.8,18.4,28.55,East,90,8.1,8.1,15,0.00,CLR,SKC,0.64,WeatherDisplay:10.37,2013-06-06 20:09:00,
2013-06-06 16:14:00,68.0,18.6,28.55,East,90,8.1,8.1,15,0.00,CLR,SKC,0.64,WeatherDisplay:10.37,2013-06-06 20:14:00,
2013-06-06 16:19:00,68.2,18.7,28.55,East,90,4.6,4.6,15,0.00,CLR,SKC,0.64,WeatherDisplay:10.37,2013-06-06 20:19:00,
2013-06-06 16:24:00,68.5,19.0,28.55,East,90,10.4,10.4,15,0.00,CLR,SKC,0.64,WeatherDisplay:10.37,2013-06-06 20:24:00,
2013-06-06 16:29:00,69.1,19.4,28.55,NE,45,8.1,8.1,15,0.00,CLR,SKC,0.64,WeatherDisplay:10.37,2013-06-06 20:29:00,
2013-06-06 16:35:00,69.8,20.0,28.55,ESE,112,5.8,5.8,15,0.00,CLR,SKC,0.64,WeatherDisplay:10.37,2013-06-06 20:35:00,
2013-06-06 16:40:00,69.8,20.0,28.55,East,90,8.1,8.1,15,0.00,CLR,SKC,0.64,WeatherDisplay:10.37,2013-06-06 20:40:00,
2013-06-06 16:45:00,69.6,19.9,28.55,East,90,9.2,9.2,15,0.00,CLR,SKC,0.64,WeatherDisplay:10.37,2013-06-06 20:45:00,
2013-06-06 16:50:00,69.4,19.7,28.54,NE,45,8.1,8.1,15,0.00,CLR,SKC,0.64,WeatherDisplay:10.37,2013-06-06 20:50:00,
2013-06-06 16:55:00,68.9,19.3,28.55,East,90,4.6,4.6,15,0.00,CLR,SKC,0.64,WeatherDisplay:10.37,2013-06-06 20:55:00,
2013-06-06 17:00:00,68.5,19.0,28.54,SE,135,5.8,5.8,15,0.00,CLR,SKC,0.64,WeatherDisplay:10.37,2013-06-06 21:00:00,
2013-06-06 17:05:00,68.2,18.7,28.54,NE,45,9.2,9.2,15,0.00,CLR,SKC,0.64,WeatherDisplay:10.37,2013-06-06 21:05:00,
2013-06-06 17:10:00,68.0,18.6,28.54,East,90,4.6,4.6,15,0.00,CLR,SKC,0.64,WeatherDisplay:10.37,2013-06-06 21:10:00,
2013-06-06 17:15:00,67.6,18.3,28.54,East,90,5.8,5.8,15,0.00,CLR,SKC,0.64,WeatherDisplay:10.37,2013-06-06 21:15:00,
2013-06-06 17:20:00,67.6,18.3,28.53,SE,135,5.8,5.8,15,0.00,CLR,SKC,0.64,WeatherDisplay:10.37,2013-06-06 21:20:00,
2013-06-06 17:25:00,67.5,18.1,28.54,East,90,3.5,3.5,15,0.00,CLR,SKC,0.64,WeatherDisplay:10.37,2013-06-06 21:25:00,
2013-06-06 17:30:00,67.3,18.0,28.54,NE,45,0.0,0.0,15,0.00,CLR,SKC,0.64,WeatherDisplay:10.37,2013-06-06 21:30:00,
2013-06-06 17:35:00,67.1,17.8,28.54,East,90,2.3,0.0,15,0.00,CLR,SKC,0.64,WeatherDisplay:10.37,2013-06-06 21:35:00,
2013-06-06 17:40:00,66.9,17.7,28.54,East,90,3.5,0.0,15,0.00,CLR,SKC,0.64,WeatherDisplay:10.37,2013-06-06 21:40:00,
2013-06-06 17:45:00,66.4,17.3,28.54,East,90,2.3,2.3,15,0.01,RA,SKC,0.65,WeatherDisplay:10.37,2013-06-06 21:45:00,
2013-06-06 17:50:00,65.7,16.7,28.55,NE,45,3.5,3.5,15,0.05,RA,SKC,0.69,WeatherDisplay:10.37,2013-06-06 21:50:00,
2013-06-06 17:55:00,64.8,16.0,28.55,East,90,3.5,3.5,15,0.07,RA,SKC,0.71,WeatherDisplay:10.37,2013-06-06 21:55:00,
2013-06-06 18:00:00,64.2,15.5,28.55,East,90,3.5,0.0,15,0.13,RA,SKC,0.77,WeatherDisplay:10.37,2013-06-06 22:00:00,
2013-06-06 18:05:00,63.9,15.2,28.55,NE,45,3.5,3.5,15,0.25,RA,SKC,0.89,WeatherDisplay:10.37,2013-06-06 22:05:00,
2013-06-06 18:10:00,63.5,26.0,28.56,NE,45,4.6,4.6,24,0.32,RA,SKC,0.98,WeatherDisplay:10.37,2013-06-06 22:10:00,
2013-06-06 18:15:00,63.0,34.1,28.56,NE,45,4.6,4.6,34,0.46,RA,SKC,1.12,WeatherDisplay:10.37,2013-06-06 22:15:00,
2013-06-06 18:20:00,62.6,37.9,28.55,NE,45,3.5,3.5,40,0.53,RA,SKC,1.17,WeatherDisplay:10.37,2013-06-06 22:20:00,
2013-06-06 18:25:00,62.4,39.0,28.55,North,0,3.5,3.5,42,0.54,RA,SKC,1.18,WeatherDisplay:10.37,2013-06-06 22:25:00,
2013-06-06 18:30:00,62.4,40.8,28.55,NW,315,3.5,3.5,45,0.58,RA,SKC,1.22,WeatherDisplay:10.37,2013-06-06 22:30:00,
2013-06-06 18:35:00,62.2,40.6,28.55,North,0,3.5,3.5,45,0.59,RA,SKC,1.23,WeatherDisplay:10.37,2013-06-06 22:35:00,
2013-06-06 18:40:00,62.2,43.4,28.55,NE,45,2.3,2.3,50,0.61,RA,SKC,1.25,WeatherDisplay:10.37,2013-06-06 22:40:00,
2013-06-06 18:45:00,62.2,43.4,28.55,NE,45,3.5,3.5,50,0.61,RA,SKC,1.26,WeatherDisplay:10.37,2013-06-06 22:45:00,
2013-06-06 18:50:00,62.2,44.4,28.55,North,0,3.5,3.5,52,0.60,RA,SKC,1.29,WeatherDisplay:10.37,2013-06-06 22:50:00,
2013-06-06 18:55:00,62.1,45.7,28.55,NE,45,0.0,1.6,55,0.58,RA,SKC,1.29,WeatherDisplay:10.37,2013-06-06 22:55:00,
2013-06-06 19:00:00,62.1,46.6,28.55,NE,45,3.5,3.5,57,0.53,RA,SKC,1.30,WeatherDisplay:10.37,2013-06-06 23:00:00,
2013-06-06 19:05:00,62.1,47.6,28.55,NE,45,2.3,2.3,59,0.43,RA,SKC,1.31,WeatherDisplay:10.37,2013-06-06 23:05:00,
2013-06-06 19:10:00,62.1,48.4,28.55,East,90,2.3,2.3,61,0.34,RA,SKC,1.32,WeatherDisplay:10.37,2013-06-06 23:10:00,
2013-06-06 19:15:00,62.1,50.2,28.55,NE,45,3.5,3.5,65,0.20,RA,SKC,1.33,WeatherDisplay:10.37,2013-06-06 23:15:00,
2013-06-06 19:20:00,62.1,52.2,28.55,NE,45,3.5,3.5,70,0.18,RA,SKC,1.35,WeatherDisplay:10.37,2013-06-06 23:20:00,
2013-06-06 19:25:00,62.2,54.6,28.55,NE,45,3.5,3.5,76,0.18,RA,SKC,1.36,WeatherDisplay:10.37,2013-06-06 23:25:00,
2013-06-06 19:30:00,62.2,57.0,28.55,NE,45,5.8,5.8,83,0.17,RA,SKC,1.38,WeatherDisplay:10.37,2013-06-06 23:30:00,
2013-06-06 19:35:00,62.2,58.6,28.54,NE,45,4.6,4.6,88,0.17,RA,SKC,1.39,WeatherDisplay:10.37,2013-06-06 23:35:00,
2013-06-06 19:40:00,62.2,59.9,28.54,ENE,68,6.9,6.9,92,0.15,RA,SKC,1.41,WeatherDisplay:10.37,2013-06-06 23:40:00,
2013-06-06 19:45:00,62.2,62.0,28.55,NE,45,5.8,5.8,99,0.14,RA,SKC,1.41,WeatherDisplay:10.37,2013-06-06 23:45:00,
2013-06-06 19:50:00,62.1,62.1,28.56,East,90,4.6,4.6,100,0.12,CLR,SKC,1.41,WeatherDisplay:10.37,2013-06-06 23:50:00,
2013-06-06 19:55:00,62.1,62.1,28.56,SE,135,4.6,4.6,100,0.12,CLR,SKC,1.41,WeatherDisplay:10.37,2013-06-06 23:55:00,
2013-06-06 20:00:00,62.1,62.1,28.56,East,90,8.1,8.1,100,0.13,RA,SKC,1.43,WeatherDisplay:10.37,2013-06-07 00:00:00,
2013-06-06 20:05:00,62.1,62.1,28.55,NE,45,8.1,8.1,100,0.13,RA,SKC,1.44,WeatherDisplay:10.37,2013-06-07 00:05:00,
2013-06-06 20:10:00,62.1,62.1,28.55,ENE,68,5.8,5.8,100,0.13,RA,SKC,1.45,WeatherDisplay:10.37,2013-06-07 00:10:00,
2013-06-06 20:15:00,62.1,62.1,28.55,NE,45,9.2,9.2,100,0.12,RA,SKC,1.45,WeatherDisplay:10.37,2013-06-07 00:15:00,
2013-06-06 20:20:00,62.1,62.1,28.55,ENE,68,4.6,4.6,100,0.12,RA,SKC,1.46,WeatherDisplay:10.37,2013-06-07 00:20:00,
2013-06-06 20:25:00,62.1,62.1,28.54,NE,45,3.5,0.0,100,0.12,RA,SKC,1.48,WeatherDisplay:10.37,2013-06-07 00:25:00,
2013-06-06 20:30:00,62.1,62.1,28.54,East,90,8.3,8.3,100,0.09,RA,SKC,1.48,WeatherDisplay:10.37,2013-06-07 00:30:00,
2013-06-06 20:35:00,62.1,62.1,28.54,NE,45,5.8,5.8,100,0.08,CLR,SKC,1.48,WeatherDisplay:10.37,2013-06-07 00:35:00,
2013-06-06 20:40:00,62.1,62.1,28.54,NE,45,4.6,4.6,100,0.07,CLR,SKC,1.49,WeatherDisplay:10.37,2013-06-07 00:40:00,
2013-06-06 20:45:00,62.1,62.1,28.55,NE,45,8.1,8.1,100,0.08,RA,SKC,1.49,WeatherDisplay:10.37,2013-06-07 00:45:00,
2013-06-06 20:51:00,62.1,62.1,28.54,NE,45,4.6,0.0,100,0.08,,SKC,1.49,WeatherDisplay:10.37,2013-06-07 00:51:00,
2013-06-06 20:56:00,61.9,61.9,28.54,NE,45,3.5,3.5,100,0.08,CLR,SKC,1.49,WeatherDisplay:10.37,2013-06-07 00:56:00,
2013-06-06 21:01:00,61.9,61.9,28.54,NE,45,6.9,6.9,100,0.06,CLR,SKC,1.49,WeatherDisplay:10.37,2013-06-07 01:01:00,
2013-06-06 21:06:00,61.9,61.9,28.54,NE,45,6.0,6.0,100,0.05,CLR,SKC,1.49,WeatherDisplay:10.37,2013-06-07 01:06:00,
2013-06-06 21:11:00,61.9,61.9,28.54,NE,45,5.8,5.8,100,0.04,CLR,SKC,1.49,WeatherDisplay:10.37,2013-06-07 01:11:00,
2013-06-06 21:16:00,62.1,62.1,28.54,ENE,68,5.8,5.8,100,0.04,CLR,SKC,1.49,WeatherDisplay:10.37,2013-06-07 01:16:00,
2013-06-06 21:21:00,61.9,61.9,28.53,East,90,5.8,5.8,100,0.02,CLR,SKC,1.49,WeatherDisplay:10.37,2013-06-07 01:21:00,
2013-06-06 21:26:00,62.1,62.1,28.54,East,90,5.8,5.8,100,0.01,CLR,SKC,1.49,WeatherDisplay:10.37,2013-06-07 01:26:00,
2013-06-06 21:31:00,62.1,62.1,28.54,NE,45,8.1,8.1,100,0.01,CLR,SKC,1.49,WeatherDisplay:10.37,2013-06-07 01:31:00,
2013-06-06 21:36:00,61.9,61.9,28.54,NE,45,4.6,4.6,100,0.01,CLR,SKC,1.49,WeatherDisplay:10.37,2013-06-07 01:36:00,
2013-06-06 21:41:00,61.9,61.9,28.54,NE,45,5.8,5.8,100,0.01,CLR,SKC,1.49,WeatherDisplay:10.37,2013-06-07 01:41:00,
2013-06-06 21:46:00,62.1,62.1,28.54,East,90,5.8,5.8,100,0.00,CLR,SKC,1.49,WeatherDisplay:10.37,2013-06-07 01:46:00,
2013-06-06 21:51:00,62.1,62.1,28.54,ENE,68,3.5,3.5,100,0.00,CLR,SKC,1.49,WeatherDisplay:10.37,2013-06-07 01:51:00,
2013-06-06 21:56:00,62.1,62.1,28.54,East,90,5.8,5.8,100,0.00,CLR,SKC,1.49,WeatherDisplay:10.37,2013-06-07 01:56:00,
2013-06-06 22:01:00,62.1,62.1,28.54,ENE,68,4.6,4.6,100,0.00,CLR,SKC,1.49,WeatherDisplay:10.37,2013-06-07 02:01:00,
2013-06-06 22:06:00,62.1,62.1,28.54,NE,45,5.8,5.8,100,0.00,CLR,SKC,1.49,WeatherDisplay:10.37,2013-06-07 02:06:00,
2013-06-06 22:11:00,61.9,61.9,28.54,East,90,3.5,0.0,100,0.00,CLR,SKC,1.49,WeatherDisplay:10.37,2013-06-07 02:11:00,
2013-06-06 22:16:00,61.9,61.9,28.55,East,90,1.2,0.0,100,0.00,CLR,SKC,1.49,WeatherDisplay:10.37,2013-06-07 02:16:00,
2013-06-06 22:21:00,61.9,61.9,28.55,SE,135,1.2,0.0,100,0.00,CLR,SKC,1.49,WeatherDisplay:10.37,2013-06-07 02:21:00,
2013-06-06 22:26:00,61.9,61.9,28.56,South,180,0.0,0.0,100,0.00,CLR,SKC,1.49,WeatherDisplay:10.37,2013-06-07 02:26:00,
2013-06-06 22:31:00,62.1,62.1,28.56,South,180,0.0,0.0,100,0.00,CLR,SKC,1.49,WeatherDisplay:10.37,2013-06-07 02:31:00,
2013-06-06 22:36:00,61.9,61.9,28.55,South,180,0.0,0.0,100,0.00,CLR,SKC,1.49,WeatherDisplay:10.37,2013-06-07 02:36:00,
2013-06-06 22:41:00,61.9,61.9,28.55,East,90,0.0,0.0,100,0.00,CLR,SKC,1.49,WeatherDisplay:10.37,2013-06-07 02:41:00,
2013-06-06 22:46:00,61.9,61.9,28.55,East,90,0.0,0.0,100,0.00,CLR,SKC,1.49,WeatherDisplay:10.37,2013-06-07 02:46:00,
2013-06-06 22:51:00,62.1,62.1,28.55,East,90,1.2,0.0,100,0.00,CLR,SKC,1.49,WeatherDisplay:10.37,2013-06-07 02:51:00,
2013-06-06 22:56:00,62.1,62.1,28.55,East,90,0.0,0.0,100,0.00,CLR,SKC,1.49,WeatherDisplay:10.37,2013-06-07 02:56:00,
2013-06-06 23:01:00,62.1,62.1,28.55,NE,45,0.0,0.0,100,0.00,CLR,SKC,1.49,WeatherDisplay:10.37,2013-06-07 03:01:00,
2013-06-06 23:06:00,62.1,62.1,28.54,NE,45,0.0,0.0,100,0.00,CLR,SKC,1.49,WeatherDisplay:10.37,2013-06-07 03:06:00,
2013-06-06 23:11:00,62.1,62.1,28.55,NE,45,0.0,0.0,100,0.00,CLR,SKC,1.49,WeatherDisplay:10.37,2013-06-07 03:11:00,
2013-06-06 23:16:00,62.1,62.1,28.54,NE,45,0.0,0.0,100,0.00,CLR,SKC,1.49,WeatherDisplay:10.37,2013-06-07 03:16:00,
2013-06-06 23:21:00,62.1,62.1,28.54,NE,45,0.0,0.0,100,0.00,CLR,SKC,1.49,WeatherDisplay:10.37,2013-06-07 03:21:00,
2013-06-06 23:26:00,62.1,62.1,28.54,NE,45,0.0,0.0,100,0.00,CLR,SKC,1.49,WeatherDisplay:10.37,2013-06-07 03:26:00,
2013-06-06 23:31:00,62.1,62.1,28.54,East,90,0.0,0.0,100,0.00,CLR,SKC,1.49,WeatherDisplay:10.37,2013-06-07 03:31:00,
2013-06-06 23:36:00,62.1,62.1,28.54,NE,45,0.0,0.0,100,0.00,CLR,SKC,1.49,WeatherDisplay:10.37,2013-06-07 03:36:00,
2013-06-06 23:41:00,62.1,62.1,28.55,NE,45,0.0,0.0,100,0.00,CLR,SKC,1.49,WeatherDisplay:10.37,2013-06-07 03:41:00,
2013-06-06 23:46:00,62.1,62.1,28.54,NE,45,0.0,0.0,100,0.00,CLR,SKC,1.49,WeatherDisplay:10.37,2013-06-07 03:46:00,
2013-06-06 23:51:00,62.1,62.1,28.54,NE,45,0.0,0.0,100,0.00,CLR,SKC,1.49,WeatherDisplay:10.37,2013-06-07 03:51:00,
2013-06-06 23:56:00,62.1,62.1,28.54,NE,45,0.0,0.0,100,0.00,CLR,SKC,1.49,WeatherDisplay:10.37,2013-06-07 03:56:00,